User: anonymous   Login
Location: Bougoudala
(13.2282°N, 4.9477°W)
Time: 22:51:09
(UTC+00:00)
Language:

Meteor 2-2 Rocket - Orbit

View from above orbital plane
View from above orbital plane
View from above satellite
View from above satellite

Ground track
Ground track

The orbit data is extracted from the following two-line orbital elements,

1  9662U 77002B   20093.28119302  .00000042  00000-0  18915-4 0  9993
2  9662  81.2775 179.0358 0053260 105.8179 254.8867 14.00937215209468
Epoch (UTC): 02 April 2020 06:44:55
Eccentricity: 0.0053260
inclination: 81.2775°
perigee height: 852 km
apogee height: 929 km
right ascension of ascending node: 179.0358°
argument of perigee: 105.8179°
revolutions per day: 14.00937215
mean anomaly at epoch: 254.8867°
orbit number at epoch: 20946

The dashed part of the orbit path shows where the satellite is in the earth's shadow,  

DLR